Location: DARK SKY Beskydy - Park tmavé oblohy, www.darkskybeskydy.cz
(49.4926°N, 18.5016°E)
Time: 09:45:50
(UTC+01:00)

Transit 2A Rocket - Visible Passes

Search period start: 25 February 2024 00:00
Search period end: 06 March 2024 00:00
Orbit: 591 x 904 km, 66.7° (Epoch: 24 February)

Date Brightness Start Highest point End Pass type
(mag) Time Alt. Az. Time Alt. Az. Time Alt. Az.
25 Feb 7.0 04:03:28 12° NNW 04:03:28 12° NNW 04:05:09 10° N visible
26 Feb 7.2 03:20:42 13° N 03:20:42 13° N 03:21:42 10° NNE visible
27 Feb 7.6 02:37:55 11° NNE 02:37:55 11° NNE 02:38:11 10° NNE visible
27 Feb 7.2 06:01:35 10° N 06:03:42 13° NNE 06:05:53 10° NE visible
28 Feb 7.2 03:34:55 11° N 03:34:55 11° N 03:36:05 10° N visible
28 Feb 7.3 05:18:13 10° N 05:19:19 11° NNE 05:20:26 10° NNE visible
29 Feb 7.5 02:52:06 11° N 02:52:06 11° N 02:52:41 10° N visible
01 Mar 7.2 05:32:27 10° N 05:35:05 14° NNE 05:37:48 10° NE visible
02 Mar 7.4 03:06:15 11° N 03:06:15 11° N 03:07:01 10° N visible
02 Mar 7.3 04:48:59 10° N 04:50:43 12° NNE 04:52:29 10° NE visible
03 Mar 7.6 02:23:25 10° N 02:23:25 10° N 02:23:39 10° N visible
03 Mar 7.5 04:05:42 10° N 04:06:17 10° N 04:06:54 10° NNE visible
03 Mar 7.0 05:46:53 10° NNW 05:50:38 21° NNE 05:54:38 10° E visible
04 Mar 7.2 05:03:21 10° NNW 05:06:25 16° NNE 05:09:37 10° ENE visible
05 Mar 7.6 02:37:31 10° N 02:37:31 10° N 02:37:53 10° N visible
05 Mar 7.4 04:19:50 10° N 04:22:06 13° NNE 04:24:25 10° NE visible
